FW7042 Weather Reports


Display with metric or nautical units.
time (UTC)temp
F
wind
direction
speed
MPH
gust
MPH
rain 1hr
in
rain 24hr
in
rain mn
in
humidity
%
barometer
mb
20260506004043 78 162 5.0 7.0 0.00 0.00 0.00 25 1007.6
20260506003539 79 192 6.0 8.0 0.00 0.00 0.00 25 1008.1
20260506003036 79 234 7.0 10.0 0.00 0.00 0.00 24 1008.2
20260506002532 79 266 4.0 6.0 0.00 0.00 0.00 24 1008.0
20260506002027 79 253 6.0 8.0 0.00 0.00 0.00 23 1008.0
20260506001524 79 250 4.0 5.0 0.00 0.00 0.00 22 1007.9
20260506001021 80 202 4.0 6.0 0.00 0.00 0.00 22 1008.1
20260506000519 80 235 4.0 6.0 0.00 0.00 0.00 22 1008.1
20260506000016 80 246 4.0 7.0 0.00 0.00 0.00 22 1007.9
20260505235514 80 268 1.0 2.0 0.00 0.00 0.00 21 1008.0
20260505235010 80 206 5.0 6.0 0.00 0.00 0.00 22 1007.9
20260505234508 80 200 5.0 8.0 0.00 0.00 0.00 22 1007.8
20260505234004 80 230 3.0 3.0 0.00 0.00 0.00 23 1008.0
20260505233502 80 166 6.0 8.0 0.00 0.00 0.00 22 1008.0
20260505232959 80 216 4.0 6.0 0.00 0.00 0.00 23 1007.9
20260505232457 80 235 3.0 5.0 0.00 0.00 0.00 23 1008.1
20260505231954 81 331 6.0 13.0 0.00 0.00 0.00 24 1007.9
20260505231451 81 152 3.0 5.0 0.00 0.00 0.00 23 1008.0
20260505230949 81 201 3.0 10.0 0.00 0.00 0.00 24 1007.8
20260505230447 81 246 9.0 16.0 0.00 0.00 0.00 24 1007.9
20260505225943 81 231 5.0 7.0 0.00 0.00 0.00 23 1008.2
20260505225440 80 63 2.0 2.0 0.00 0.00 0.00 23 1008.2
20260505224936 80 250 9.0 14.0 0.00 0.00 0.00 23 1008.0
20260505224433 80 222 6.0 13.0 0.00 0.00 0.00 24 1008.1
20260505223930 80 257 5.0 9.0 0.00 0.00 0.00 23 1008.1
20260505223427 80 261 6.0 10.0 0.00 0.00 0.00 23 1008.0
20260505222923 79 274 9.0 13.0 0.00 0.00 0.00 23 1008.1
20260505222420 79 226 7.0 11.0 0.00 0.00 0.00 24 1008.2
20260505221916 79 242 5.0 9.0 0.00 0.00 0.00 23 1008.2
20260505221413 80 237 6.0 8.0 0.00 0.00 0.00 23 1008.2
20260505220910 80 190 3.0 5.0 0.00 0.00 0.00 23 1008.2
20260505220407 80 215 5.0 7.0 0.00 0.00 0.00 23 1008.1
20260505215905 80 216 5.0 9.0 0.00 0.00 0.00 24 1008.2
20260505215403 80 237 1.0 2.0 0.00 0.00 0.00 24 1008.1
20260505214900 80 290 0.0 0.0 0.00 0.00 0.00 24 1008.2
20260505214358 80 142 4.0 5.0 0.00 0.00 0.00 24 1008.3
20260505213855 80 217 1.0 1.0 0.00 0.00 0.00 24 1008.5
20260505213353 80 222 0.0 0.0 0.00 0.00 0.00 24 1008.5
20260505212848 79 251 1.0 1.0 0.00 0.00 0.00 25 1008.6
20260505212346 78 218 0.0 0.0 0.00 0.00 0.00 26 1008.7
20260505211842 78 139 1.0 1.0 0.00 0.00 0.00 25 1008.5
20260505211340 78 92 2.0 2.0 0.00 0.00 0.00 25 1008.6
20260505210836 78 180 3.0 3.0 0.00 0.00 0.00 25 1008.6
20260505210333 79 107 2.0 3.0 0.00 0.00 0.00 25 1008.4
20260505205829 79 179 1.0 2.0 0.00 0.00 0.00 24 1009.0
20260505205328 78 190 0.0 0.0 0.00 0.00 0.00 25 1009.2
20260505204824 78 233 1.0 1.0 0.00 0.00 0.00 24 1009.2
20260505204322 78 193 1.0 2.0 0.00 0.00 0.00 25 1009.1
20260505203820 79 218 0.0 0.0 0.00 0.00 0.00 25 1009.1
20260505203316 79 220 1.0 1.0 0.00 0.00 0.00 24 1009.1
20260505202812 79 222 1.0 1.0 0.00 0.00 0.00 24 1009.2
20260505202308 80 201 0.0 0.0 0.00 0.00 0.00 24 1009.2
20260505201805 79 215 0.0 1.0 0.00 0.00 0.00 24 1009.2
20260505201303 80 130 1.0 1.0 0.00 0.00 0.00 23 1009.3
20260505200801 80 88 2.0 3.0 0.00 0.00 0.00 24 1009.5
20260505200258 80 148 1.0 2.0 0.00 0.00 0.00 24 1009.5
20260505195753 80 220 0.0 0.0 0.00 0.00 0.00 24 1009.4
20260505195251 80 201 0.0 0.0 0.00 0.00 0.00 23 1009.3
20260505194747 80 222 0.0 0.0 0.00 0.00 0.00 23 1009.6
20260505194244 80 240 1.0 2.0 0.00 0.00 0.00 24 1009.5
20260505193740 81 210 4.0 5.0 0.00 0.00 0.00 23 1010.0
20260505193238 80 236 1.0 1.0 0.00 0.00 0.00 24 1009.6
20260505192736 80 52 3.0 5.0 0.00 0.00 0.00 23 1010.1
20260505192233 80 351 3.0 5.0 0.00 0.00 0.00 24 1009.7
20260505191731 80 237 0.0 0.0 0.00 0.00 0.00 23 1009.8
20260505191230 80 223 2.0 3.0 0.00 0.00 0.00 25 1010.0
20260505190725 80 175 0.0 1.0 0.00 0.00 0.00 24 1010.0
20260505190225 81 192 1.0 1.0 0.00 0.00 0.00 24 1010.1
20260505185722 80 222 0.0 0.0 0.00 0.00 0.00 24 1009.7
20260505185218 80 218 1.0 1.0 0.00 0.00 0.00 24 1009.8
20260505184709 80 80 4.0 7.0 0.00 0.00 0.00 23 1009.7
20260505184206 80 248 2.0 3.0 0.00 0.00 0.00 24 1009.5
20260505183703 80 162 3.0 5.0 0.00 0.00 0.00 23 1010.0
20260505183200 79 229 1.0 2.0 0.00 0.00 0.00 26 1010.2
20260505182656 79 313 3.0 3.0 0.00 0.00 0.00 25 1010.3
20260505182154 79 74 0.0 1.0 0.00 0.00 0.00 25 1010.1
20260505181650 80 35 3.0 5.0 0.00 0.00 0.00 25 1010.2
20260505181148 80 225 2.0 5.0 0.00 0.00 0.00 25 1010.1
20260505180644 79 221 1.0 1.0 0.00 0.00 0.00 27 1010.3
20260505180141 78 230 2.0 2.0 0.00 0.00 0.00 26 1009.8
20260505175637 79 88 1.0 1.0 0.00 0.00 0.00 26 1010.1
20260505175134 79 259 3.0 6.0 0.00 0.00 0.00 26 1010.1
20260505174630 79 235 1.0 2.0 0.00 0.00 0.00 26 1010.4
20260505174126 78 203 4.0 6.0 0.00 0.00 0.00 26 1010.4
20260505173623 79 335 3.0 5.0 0.00 0.00 0.00 25 1010.4
20260505173119 78 177 2.0 3.0 0.00 0.00 0.00 27 1010.3
20260505172618 78 238 3.0 6.0 0.00 0.00 0.00 27 1010.4
20260505172114 77 222 1.0 1.0 0.00 0.00 0.00 27 1010.6
20260505171609 78 75 2.0 2.0 0.00 0.00 0.00 27 1010.7
20260505171106 77 233 1.0 1.0 0.00 0.00 0.00 27 1010.4
20260505170603 79 355 1.0 1.0 0.00 0.00 0.00 27 1010.5
20260505170059 78 257 3.0 3.0 0.00 0.00 0.00 27 1010.6
20260505165554 78 303 3.0 5.0 0.00 0.00 0.00 28 1010.3
20260505165050 77 81 0.0 0.0 0.00 0.00 0.00 29 1010.5
20260505164546 77 351 3.0 6.0 0.00 0.00 0.00 29 1011.0
20260505164044 76 251 0.0 0.0 0.00 0.00 0.00 30 1010.3
20260505163537 75 226 0.0 0.0 0.00 0.00 0.00 31 1010.4
20260505163033 75 213 0.0 1.0 0.00 0.00 0.00 30 1010.3
20260505162532 75 325 2.0 2.0 0.00 0.00 0.00 31 1010.1
20260505162029 75 348 5.0 9.0 0.00 0.00 0.00 31 1010.3
20260505161526 74 243 3.0 6.0 0.00 0.00 0.00 32 1009.7
20260505161023 73 335 4.0 8.0 0.00 0.00 0.00 32 1009.8
20260505160522 73 224 5.0 6.0 0.00 0.00 0.00 33 1010.4
20260505152957 71 235 3.0 3.0 0.00 0.00 0.00 34 1009.3
20260505152454 70 266 3.0 5.0 0.00 0.00 0.00 34 1009.2
20260505151949 70 308 7.0 9.0 0.00 0.00 0.00 33 1009.2
20260505151445 70 285 3.0 3.0 0.00 0.00 0.00 33 1008.9
20260505150943 70 52 4.0 5.0 0.00 0.00 0.00 32 1009.1
20260505150439 71 228 4.0 6.0 0.00 0.00 0.00 31 1009.7
20260505140404 71 263 4.0 5.0 0.00 0.00 0.00 28 1009.0
20260505124817 70 256 4.0 5.0 0.00 0.00 0.00 28 1007.6
20260505124314 70 186 3.0 6.0 0.00 0.00 0.00 28 1007.9
20260505123810 70 238 5.0 7.0 0.00 0.00 0.00 28 1007.9
20260505123307 70 304 4.0 6.0 0.00 0.00 0.00 28 1007.5
20260505122803 70 246 3.0 5.0 0.00 0.00 0.00 28 1007.5
20260505122301 70 238 5.0 6.0 0.00 0.00 0.00 27 1007.2
20260505121756 70 265 3.0 5.0 0.00 0.00 0.00 27 1007.1
20260505121254 70 223 2.0 3.0 0.00 0.00 0.00 27 1007.3
20260505120750 70 255 3.0 5.0 0.00 0.00 0.00 27 1007.3
20260505120246 70 223 3.0 3.0 0.00 0.00 0.00 27 1007.3
20260505115745 71 230 3.0 3.0 0.00 0.00 0.00 26 1007.2
20260505115243 71 248 2.0 3.0 0.00 0.00 0.00 26 1007.2
20260505114740 71 225 1.0 1.0 0.00 0.00 0.00 26 1007.1
20260505114236 72 225 4.0 5.0 0.00 0.00 0.00 25 1007.2
20260505113733 72 229 7.0 8.0 0.00 0.00 0.00 25 1007.2
20260505113229 72 289 6.0 8.0 0.00 0.00 0.00 25 1007.1
20260505112725 73 248 2.0 3.0 0.00 0.00 0.00 25 1007.2
20260505112223 73 271 4.0 6.0 0.00 0.00 0.00 25 1007.1
20260505111723 73 244 8.0 10.0 0.00 0.00 0.00 25 1006.9
20260505111219 73 259 7.0 10.0 0.00 0.00 0.00 24 1007.4
20260505110715 73 227 4.0 5.0 0.00 0.00 0.00 24 1007.0
20260505110213 73 272 4.0 5.0 0.00 0.00 0.00 24 1007.3
20260505102148 72 236 4.0 7.0 0.00 0.00 0.00 24 1007.0
20260505101647 72 270 7.0 10.0 0.00 0.00 0.00 24 1006.9
20260505101143 72 243 5.0 7.0 0.00 0.00 0.00 25 1006.9
20260505100639 72 265 3.0 5.0 0.00 0.00 0.00 25 1007.0
20260505100136 72 228 4.0 6.0 0.00 0.00 0.00 25 1007.2
20260505095632 72 230 5.0 7.0 0.00 0.00 0.00 25 1006.9
20260505095129 72 267 4.0 5.0 0.00 0.00 0.00 25 1007.0
20260505094626 71 228 5.0 8.0 0.00 0.00 0.00 25 1006.9
20260505094122 71 280 6.0 7.0 0.00 0.00 0.00 26 1006.7
20260505093618 71 307 9.0 13.0 0.00 0.00 0.00 26 1006.7
20260505093115 71 241 6.0 8.0 0.00 0.00 0.00 26 1006.5
20260505092612 71 252 5.0 7.0 0.00 0.00 0.00 26 1007.1
20260505092112 71 349 5.0 7.0 0.00 0.00 0.00 26 1006.8
20260505091608 71 248 5.0 7.0 0.00 0.00 0.00 26 1006.5
20260505091106 71 254 8.0 11.0 0.00 0.00 0.00 27 1006.7
20260505090604 70 261 5.0 7.0 0.00 0.00 0.00 27 1006.8
20260505085559 71 223 4.0 6.0 0.00 0.00 0.00 28 1006.5
20260505085057 71 228 7.0 9.0 0.00 0.00 0.00 28 1006.7
20260505084555 71 239 5.0 8.0 0.00 0.00 0.00 28 1006.5
20260505084052 70 252 2.0 3.0 0.00 0.00 0.00 28 1006.4
20260505083549 70 271 4.0 7.0 0.00 0.00 0.00 28 1006.4
20260505083046 70 237 3.0 3.0 0.00 0.00 0.00 28 1006.5
20260505082542 71 233 4.0 5.0 0.00 0.00 0.00 28 1006.4
20260505082039 71 227 4.0 6.0 0.00 0.00 0.00 28 1006.5
20260505081535 70 246 5.0 6.0 0.00 0.00 0.00 28 1006.8
20260505081032 70 233 3.0 5.0 0.00 0.00 0.00 28 1006.5
20260505080528 70 237 7.0 8.0 0.00 0.00 0.00 28 1006.4
20260505080025 71 207 4.0 6.0 0.00 0.00 0.00 28 1006.8
20260505075521 71 237 4.0 5.0 0.00 0.00 0.00 27 1006.8
20260505075018 71 225 2.0 2.0 0.00 0.00 0.00 27 1006.5
20260505074515 71 250 3.0 3.0 0.00 0.00 0.00 27 1006.7
20260505074013 71 229 3.0 5.0 0.00 0.00 0.00 27 1006.7
20260505073510 71 260 4.0 6.0 0.00 0.00 0.00 27 1006.8
20260505073008 71 246 3.0 5.0 0.00 0.00 0.00 27 1007.0
20260505072504 72 236 5.0 7.0 0.00 0.00 0.00 27 1006.5
20260505071959 72 203 2.0 2.0 0.00 0.00 0.00 27 1006.8
20260505071455 72 253 3.0 3.0 0.00 0.00 0.00 26 1007.0
20260505070954 72 263 4.0 5.0 0.00 0.00 0.00 26 1007.1
20260505070450 72 261 5.0 7.0 0.00 0.00 0.00 26 1006.9
20260505065946 72 246 5.0 6.0 0.00 0.00 0.00 26 1007.2
20260505065443 72 223 3.0 5.0 0.00 0.00 0.00 26 1007.1
20260505064939 73 267 4.0 5.0 0.00 0.00 0.00 25 1007.1
20260505064436 73 252 1.0 2.0 0.00 0.00 0.00 25 1007.1
20260505063935 73 251 5.0 6.0 0.00 0.00 0.00 25 1007.1
20260505063431 73 223 4.0 6.0 0.00 0.00 0.00 25 1007.0
20260505062927 73 228 4.0 5.0 0.00 0.00 0.00 25 1007.1
20260505062425 74 232 2.0 3.0 0.00 0.00 0.00 24 1007.1
20260505061921 74 254 4.0 6.0 0.00 0.00 0.00 24 1007.0
20260505061420 74 223 4.0 5.0 0.00 0.00 0.00 24 1006.9
20260505060917 74 193 3.0 3.0 0.00 0.00 0.00 23 1007.2
20260505060414 75 233 5.0 7.0 0.00 0.00 0.00 23 1007.3
20260505055910 75 250 6.0 10.0 0.00 0.00 0.00 22 1007.2
20260505055406 74 252 5.0 7.0 0.00 0.00 0.00 22 1007.3
20260505054903 74 210 6.0 7.0 0.00 0.00 0.00 23 1007.3
20260505054400 74 247 4.0 7.0 0.00 0.00 0.00 22 1007.3
20260505053858 75 212 6.0 10.0 0.00 0.00 0.00 22 1007.3
20260505053355 75 244 6.0 7.0 0.00 0.00 0.00 22 1007.4
20260505052852 75 218 2.0 3.0 0.00 0.00 0.00 22 1007.3
20260505052349 75 231 3.0 3.0 0.00 0.00 0.00 22 1007.4
20260505051846 75 261 6.0 7.0 0.00 0.00 0.00 21 1007.4
20260505051343 75 311 6.0 8.0 0.00 0.00 0.00 21 1007.3
20260505050841 76 246 5.0 6.0 0.00 0.00 0.00 21 1007.2
20260505050339 75 129 5.0 8.0 0.00 0.00 0.00 21 1007.1
20260505041307 75 248 10.0 16.0 0.00 0.00 0.00 21 1007.2
20260505040804 75 286 6.0 7.0 0.00 0.00 0.00 21 1007.5
20260505040301 75 266 4.0 6.0 0.00 0.00 0.00 21 1007.5
20260505035758 76 226 2.0 3.0 0.00 0.00 0.00 21 1007.4
20260505035253 76 271 7.0 9.0 0.00 0.00 0.00 21 1007.6
20260505034751 75 214 6.0 8.0 0.00 0.00 0.00 21 1007.6
20260505034248 75 225 5.0 6.0 0.00 0.00 0.00 21 1007.3
20260505033744 75 204 3.0 3.0 0.00 0.00 0.00 21 1007.4
20260505033242 75 229 4.0 5.0 0.00 0.00 0.00 21 1007.5
20260505032740 75 290 3.0 7.0 0.00 0.00 0.00 21 1007.4
20260505032235 76 249 3.0 5.0 0.00 0.00 0.00 21 1007.4
20260505031733 76 266 2.0 3.0 0.00 0.00 0.00 21 1007.4
20260505031229 76 229 3.0 3.0 0.00 0.00 0.00 21 1007.2
20260505030726 76 233 0.0 1.0 0.00 0.00 0.00 21 1007.4
20260505030222 76 236 2.0 3.0 0.00 0.00 0.00 21 1007.3
20260505025718 77 241 3.0 5.0 0.00 0.00 0.00 20 1007.2
20260505025217 77 204 2.0 2.0 0.00 0.00 0.00 20 1007.0
20260505024714 77 246 4.0 6.0 0.00 0.00 0.00 20 1007.1
20260505024211 77 233 3.0 3.0 0.00 0.00 0.00 20 1007.1
20260505023709 78 240 4.0 5.0 0.00 0.00 0.00 20 1006.9
20260505023206 78 222 3.0 5.0 0.00 0.00 0.00 20 1006.8
20260505022704 78 225 4.0 6.0 0.00 0.00 0.00 20 1006.7
20260505022200 79 220 3.0 3.0 0.00 0.00 0.00 19 1006.7
20260505021657 79 238 2.0 3.0 0.00 0.00 0.00 19 1006.4
20260505021154 79 239 5.0 6.0 0.00 0.00 0.00 19 1006.7
20260505020649 79 223 5.0 7.0 0.00 0.00 0.00 19 1006.4
20260505020145 79 254 2.0 3.0 0.00 0.00 0.00 19 1006.5
20260505015643 79 214 2.0 3.0 0.00 0.00 0.00 19 1006.7
20260505015139 79 227 4.0 5.0 0.00 0.00 0.00 19 1006.4
20260505014636 80 232 2.0 2.0 0.00 0.00 0.00 19 1006.8
20260505014133 80 249 2.0 3.0 0.00 0.00 0.00 19 1006.7
20260505013631 80 241 2.0 3.0 0.00 0.00 0.00 18 1006.7
20260505013127 80 242 2.0 3.0 0.00 0.00 0.00 18 1006.3
20260505012626 81 223 3.0 5.0 0.00 0.00 0.00 18 1006.4
20260505012122 81 242 3.0 3.0 0.00 0.00 0.00 18 1006.3
20260505011618 82 250 6.0 11.0 0.00 0.00 0.00 18 1006.4
20260505011115 82 228 5.0 7.0 0.00 0.00 0.00 18 1006.3
20260505010610 82 246 5.0 8.0 0.00 0.00 0.00 18 1006.8
20260505010108 82 229 5.0 6.0 0.00 0.00 0.00 17 1006.3
20260505005604 82 281 7.0 9.0 0.00 0.00 0.00 17 1006.4
20260505005101 82 208 6.0 9.0 0.00 0.00 0.00 17 1006.4
20260505004558 82 277 4.0 5.0 0.00 0.00 0.00 17 1006.4